CDT,Max TemperatureF,Mean TemperatureF,Min TemperatureF,Max Dew PointF,MeanDew PointF,Min DewpointF,Max Humidity, Mean Humidity, Min Humidity, Max Sea Level PressureIn, Mean Sea Level PressureIn, Min Sea Level PressureIn, Max VisibilityMiles, Mean VisibilityMiles, Min VisibilityMiles, Max Wind SpeedMPH, Mean Wind SpeedMPH, Max Gust SpeedMPH,PrecipitationIn, CloudCover, Events, WindDirDegrees
2013-9-1,93,82,70,63,60,53,73,53,32,29.97,29.88,29.77,10,10,10,20,10,25,T,1,Rain-Thunderstorm,22
2013-9-2,92,77,62,62,54,45,78,50,21,30.03,29.97,29.91,10,10,10,15,7,21,0.00,0,,119
2013-9-3,95,79,62,59,55,51,67,48,28,30.02,29.95,29.88,10,10,10,16,8,23,0.00,1,,170
2013-9-4,99,81,63,57,52,47,67,43,18,30.01,29.97,29.93,10,10,10,17,9,22,0.00,0,,175
2013-9-5,98,79,60,55,49,43,67,42,17,30.04,30.00,29.96,10,10,10,17,8,22,0.00,0,,173
2013-9-6,99,80,60,53,47,43,56,36,16,30.03,29.95,29.87,10,10,10,20,9,26,0.00,0,,188
2013-9-7,99,82,65,55,53,49,67,44,20,29.92,29.88,29.83,10,10,10,17,8,28,0.00,0,,197
2013-9-8,97,81,64,57,54,51,73,48,22,29.88,29.82,29.74,10,10,10,20,9,24,0.00,0,,188
2013-9-9,94,80,65,58,54,49,73,48,23,29.82,29.78,29.71,10,10,10,25,14,31,0.00,0,,186
2013-9-10,91,79,66,65,59,55,73,54,34,30.02,29.91,29.82,10,10,10,26,11,36,T,2,,184
2013-9-11,84,74,63,67,64,61,90,71,51,30.18,30.05,29.98,10,10,1,25,7,36,0.31,5,Rain-Thunderstorm,174
2013-9-12,81,75,68,68,65,63,93,74,54,30.21,30.06,29.98,10,10,9,18,9,24,0.07,6,,58
2013-9-13,78,71,63,65,64,62,93,79,64,30.16,30.03,29.92,10,9,1,22,11,28,0.99,6,Rain-Thunderstorm,89
2013-9-14,84,74,63,65,62,57,93,67,40,30.08,29.93,29.78,10,10,9,21,9,25,0.15,5,Rain-Thunderstorm,178
2013-9-15,82,72,62,67,63,59,93,72,51,30.17,29.98,29.83,10,10,2,22,9,26,0.14,4,Rain-Thunderstorm,321
2013-9-16,72,67,61,63,61,59,100,84,68,30.25,30.15,30.04,10,9,2,14,5,18,0.44,7,Rain,47
2013-9-17,86,74,62,64,62,60,93,69,44,30.15,29.92,29.78,10,10,10,28,13,35,0.00,1,,191
2013-9-18,91,80,68,64,62,59,81,59,37,29.82,29.74,29.65,10,10,10,31,21,39,0.00,0,,196
2013-9-19,86,75,63,66,61,57,73,59,44,30.01,29.83,29.72,10,10,4,24,9,31,0.19,5,Rain-Thunderstorm,168
2013-9-20,74,65,55,57,51,44,86,61,35,30.12,30.03,29.97,10,10,10,18,9,24,T,4,Rain,60
2013-9-21,82,67,52,57,53,47,89,66,42,30.03,29.91,29.79,10,10,10,23,11,29,0.00,0,,188
2013-9-22,85,71,56,57,49,43,83,54,24,29.79,29.69,29.58,10,10,10,25,16,35,0.00,0,,178
2013-9-23,83,70,56,50,46,41,69,47,25,29.89,29.66,29.52,10,10,10,25,10,30,T,2,Rain,240
2013-9-24,83,66,48,50,45,40,83,53,22,30.04,29.95,29.88,10,10,10,10,4,14,0.00,0,,250
2013-9-25,90,73,55,50,45,40,72,45,17,29.87,29.68,29.54,10,10,10,31,16,41,0.00,0,,187
2013-9-26,96,79,62,54,47,43,56,36,16,29.61,29.56,29.52,10,10,10,36,18,44,0.00,0,,191
2013-9-27,85,72,59,64,59,54,79,60,40,29.82,29.66,29.57,10,9,1,32,15,41,0.48,3,Rain-Thunderstorm,188
2013-9-28,70,59,47,54,41,33,83,55,26,30.12,30.02,29.78,10,10,10,28,8,35,0.00,1,,340
2013-9-29,81,63,44,47,40,37,83,52,21,30.12,29.95,29.80,10,10,10,21,10,28,0.00,0,,185
2013-9-30,86,65,44,50,44,40,89,54,19,29.79,29.73,29.67,10,10,10,14,5,26,0.00,0,,157